Torna al catalogo

SL-16 DEB

AttivoLEO
NORAD 22294·DEBRIS·🇷🇺 Russia

Lanciato Dec 25, 1992 da Baikonur Cosmodrome

Loading…

Prossimi Passaggi (prossime 24 ore)

TLE

AggiornatoSource: Space-Track

Epoca: Sep 14, 2026, 08:14 UTC

1 22294U 92093J   26257.34305567 -.00000229  00000-0 -97880-4 0  9998
2 22294  71.0588 217.6751 0098254  21.8066 138.4099 14.10580468735589

Traccia SL-16 DEB in tempo reale con AllMySat

Download on the App Store